Погода Мирный

Погода Мирный : погода сейчас, прогноз погоды и архив. Всё, что Вы хотите узнать о погоде Мирный!

Хотите узнать прогноз погоды Мирный? Тогда Вам сюда: Погода Мирный

Поиск расширенной информации на нашем сайте:

Другие новости

Новости СМИ2

Главная страница сайта

Новости сайта

02.10.2013

Напоминаем, что на нашем новом сайте вы можете получить высокодетализированные прогнозы погоды по пунктам России, СНГ и мира (включающие важные для авиации метеовеличины, такие как направление и скорость ветра, видимость, явления погоды, количество и форма облачности, нижняя и верхняя граница облачности), а также ознакомиться с разнообразными материалами по авиационной метеорологии и подборкой полезных ссылок на эту тему.

Сайт Метеоцентр.Азия посвящён разработке технологий оптимизации авиаметеорологического обслуживания, включая проектирование и перспективное создание нескольких автоматизированных авиаметеорологических систем:
- система выпуска высокодетальных прогностических карт явлений погоды для нижнего воздушного пространства по России и ближнему зарубежью;
- система верификации прогнозов TAF (выпускаемых синоптиками официальных АМСГ РФ и ближнего зарубежья) и AUTOTAF (выпускаемых сайтом Метеоцентр.Азия) - выявление ошибок, онлайн-сопоставление с фактической погодой METAR, автоматическое внесение коррективов в прогнозы при резком отклонении фактической погоды от прогноза, подсчёт оправдываемости прогнозов по элементам и в целом;
- система обработки, анализа и отображения авиаметеорологической информации для применения провайдерами метеорологической информации.


Погода Мирный - сегодня

Время (UTC), дата Ветер
(°,м/с) 
Видим.   Явления Облачность Т
(°С)
Тd
(°С)
f(%) Тe
(°С)
Pmin
(гПа)
dP
(гПа)
Po
(мм)
O2
(г/м3)
Тmin Tmax R s Состояние
почвы
12 22.03.17 260 (З) 20000 м    10/3 1000 м средняя, верхняя 
[Sc|Ac lent|Ci fib]
-2.6 -7.8 67 -5  1026.9  0.5  736  300    +1.6  0.0     
15 22.03.17 260 (З) 20000 м    10/0 средняя, верхняя 
[Ac trans|Ci fib]
-4.9 -8.5 76 -7  1027.3  -0.2  736  303           
18 22.03.17 260 (З) 20000 м    10/0 средняя 
[Ac und]
-5 -8.6 76 -7  1026.5  -0.8  736  303           
21 22.03.17 270 (З) 20000 м    10/3 1000 м средняя 
[Sc|Ac und]
-4.2 -8.4 72 -7  1025.4  -0.9  735  302           
00 23.03.17 220 (ЮЗ) 20000 м    10/5 1200 м средняя, верхняя 
[Sc|Ac trans|Ci sp]
-5.9 -9 79 -7  1025.5  -0.2  735  304  -7      36  равномерный
сухой снег
100% 
03 23.03.17 240 (ЮЗ) 20000 м    10/4 1350 м верхняя 
[Sc|Ci sp]
-1.8 -8.3 61 -3  1024  -0.7  734  299           
06 23.03.17 280 (З) 20000 м    10/6 1000 м верхняя 
[Sc|Ci fib]
+2.4 -7.9 46 1021.7  -1.5  733  294           
09 23.03.17 280 (З) 20000 м    5/3 1000 м верхняя 
[Cu hum|Ci fib]
+1.3 -8.6 48 -1  1021.7  -0.1  733  295           
12 23.03.17 240 (ЮЗ) 20000 м    3/0 средняя 
[Ac cuf]
-3.7 -9.9 62 -3  1022.6  733  300    +3       
15 23.03.17 200 (Ю) 20000 м    ясно 
-6.3 -10.3 73 -8  1022.3  -0.7  733  303           
18 23.03.17 230 (ЮЗ) 20000 м    ясно 
-9.5 -11.6 85 -12  1021.5  -1.3  732  306           
21 23.03.17 270 (З) 20000 м    4/0 средняя 
[Ac trans]
-6.3 -12.2 63 -10  1020.2  -0.8  731  303           
00 24.03.17 160 (Ю) 20000 м    10/0 верхняя 
[Ci fib]
-8.2 -12.9 69 -8  1020.4  -0.1  731  305  -11.2      36  равномерный
сухой снег
100% 
03 24.03.17 260 (З) 20000 м    10/0 верхняя 
[Ci fib]
-1.6 -11.3 48 -4  1018.4  -0.8  730  297           
06 24.03.17 260 (З) 20000 м    10/4 600 м кучево-дожд., верхняя 
[Cb cap|Ci fib]
+1 -7.7 52 -1  1018.4  0.3  731  294           
09 24.03.17 310 (СЗ) 20000 м    10/3 600 м кучево-дожд., верхняя 
[Cb cap|Ci fib]
-1.3 -7.2 64 -3  1019.8  1.1  731  297           
12 24.03.17 280 (З) 20000 м    10/0 верхняя 
[Ci fib]
-5.5 -8.9 77 -8  1021.8  1.3  732  302    +1       
15 24.03.17 260 (З) 20000 м    10/0 средняя, верхняя 
[Ac trans|Ci fib]
-5.9 -8.2 84 -7  1022.1  0.1  732  302           
18 24.03.17 260 (З) 20000 м    10/0 средняя, верхняя 
[Ac trans|Ci fib]
-8.9 -10 92 -12  1022.6  732  306           
21 24.03.17 270 (З) 20000 м    10/0 средняя, верхняя 
[Ac trans|Ci fib]
-9.4 -10.6 91 -13  1022.9  0.3  733  307           
00 25.03.17 270 (З) 20000 м    10/0 верхняя 
[Ci fib]
-8.4 -10.3 86 -13  1022.4  -0.4  732  305  -9.8      35  равномерный
мокрый или
старый снег
100% 
03 25.03.17 260 (З) 20000 м    10/0 средняя, верхняя 
[Ac trans|Ci sp]
-2.1 -8.4 62 -5  1021.5  0.1  732  298           
06 25.03.17 260 (З) 20000 м    10/3 1000 м средняя, верхняя 
[Sc|Ac trans|Ci fib]
+1.9 -7.1 51 -1  1019.6  -1.1  732  293           
09 25.03.17 260 (З) 20000 м    10/0 верхняя 
[Ci fib]
+2.8 -8.6 43 1018.3  -1.1  731  292           
12 25.03.17 230 (ЮЗ) 20000 м    10/0 верхняя 
[Ci fib]
-2.2 -8.9 60 -3  1019.2  731  298    +3.2       
Время (UTC), дата Ветер
(°,м/с) 
Видим.   Явления Облачность Т
(°С)
Тd
(°С)
f(%) Тe
(°С)
Pmin
(гПа)
dP
(гПа)
Po
(мм)
O2
(г/м3)
Тmin Tmax R s Состояние
почвы

Для получения пояснительной информации подведите курсор к названию столбца.

ПОГОДА Мирный - архив

Всё, что Вы хотите узнать о погоде Мирный - удобно и подробно!

Выберите нужную дату (начиная с 1 января 2015* года) и нажмите кнопку "Найти".
Будут отображены архивные сводки погоды по пункту Мирный, начиная с указанной даты.


Отображать данные в формате CSV (для использования в таблицах Excel)


Внимание! Наш архив погоды предназначен исключительно для личного некоммерческого использования в познавательных целях. Если Вам необходимы официальные справки о состоянии погоды (для производственных, юридических, коммерческих и т.п. целей), обращайтесь в органы Росгидромета.

*Примечание: данная дата относится к архиву по метеостанциям СССР (Россия, СНГ, Балтия).
Архив по метеостанциям Зарубежной Европы и Азии (кроме Китая) хранится 10 дней, по другим регионам земного шара (Китай, Африка, Америка, Австралия, Океания) - 1 день.

Мирный - район местоположения метеостанции


Название, широта, долгота, высота метеостанции:
Мирный 62.5°ш. 114.0°д. 352 м над ур. моря [Российская Федерация]

Дополнительная информация

В oтличие oт бoльшинства пoгoдных сайтoв мы публикуем пoдрoбную метеoинфoрмацию в детальнoм прoфессиoнальнoм фoрмате.

Характеристики температуры и влажнoсти вoздуха измеряются на высoте 2 м в тени вдали oт зданий и деревьев.
Скoрoсть ветра измеряется на высoте 10 м (на урoвне рoста челoвека скoрoсть ветра ниже в 1.5-2 раза). Если метеoстанция нахoдится в гoрoде или в лесу, тo скoрoсть ветра занижена на 2-4 м/с пo сравнению с oткрытым местoм. Скoрoсть ветра над акватoриями крупных рек и oзёр, а также на вершинах хoлмoв на 2-5 м/с выше, чем в oбычных услoвиях.
Атмoсфернoе давление в разных тoчках местнoсти мoжет значительнo oтличаться oт давления на метеoстанции, в зависимoсти oт услoвий рельефа (при пoдъёме на 10 м давление пoнижается примернo на 1 мм рт.ст.).